Time,TemperatureF,DewpointF,PressureIn,WindDirection,WindDirectionDegrees,WindSpeedMPH,WindSpeedGustMPH,Humidity,HourlyPrecipIn,Conditions,Clouds,dailyrainin,SoftwareType,DateUTC
2013-06-01 00:02:00,81.0,73.0,29.65,SE,138,0.0,0.0,77,0.00,,,0.00,,2013-06-01 05:02:00,
2013-06-01 00:12:00,81.0,73.0,29.65,SE,143,0.0,0.0,78,0.00,,,0.00,,2013-06-01 05:12:00,
2013-06-01 00:22:00,81.0,73.0,29.65,SE,143,0.0,0.0,78,0.00,,,0.00,,2013-06-01 05:22:00,
2013-06-01 00:32:00,81.0,73.0,29.65,SE,133,0.0,0.0,78,0.00,,,0.00,,2013-06-01 05:32:00,
2013-06-01 00:42:00,80.0,72.0,29.66,SSE,152,0.0,0.0,78,0.00,,,0.00,,2013-06-01 05:42:00,
2013-06-01 00:52:00,80.0,72.0,29.66,SSE,152,0.0,0.0,78,0.00,,,0.00,,2013-06-01 05:52:00,
2013-06-01 01:01:00,80.0,73.0,29.66,SE,138,0.0,0.0,79,0.00,,,0.00,,2013-06-01 06:01:00,
2013-06-01 01:12:00,80.0,73.0,29.67,SE,140,0.0,0.0,79,0.00,,,0.00,,2013-06-01 06:12:00,
2013-06-01 01:22:00,80.0,73.0,29.67,SE,140,0.0,0.0,79,0.00,,,0.00,,2013-06-01 06:22:00,
2013-06-01 01:32:00,80.0,73.0,29.67,SSE,150,0.0,0.0,79,0.00,,,0.00,,2013-06-01 06:32:00,
2013-06-01 01:42:00,79.0,72.0,29.67,SSE,165,0.0,0.0,80,0.00,,,0.00,,2013-06-01 06:42:00,
2013-06-01 01:52:00,79.0,72.0,29.67,SSE,165,0.0,0.0,80,0.00,,,0.00,,2013-06-01 06:52:00,
2013-06-01 02:01:00,79.0,73.0,29.67,SE,142,0.0,0.0,81,0.00,,,0.00,,2013-06-01 07:01:00,
2013-06-01 02:11:00,79.0,73.0,29.66,ESE,115,0.0,0.0,81,0.00,,,0.00,,2013-06-01 07:11:00,
2013-06-01 02:21:00,79.0,73.0,29.66,ESE,115,0.0,0.0,81,0.00,,,0.00,,2013-06-01 07:21:00,
2013-06-01 02:31:00,78.0,72.0,29.66,SSE,155,0.0,0.0,82,0.00,,,0.00,,2013-06-01 07:31:00,
2013-06-01 02:42:00,78.0,72.0,29.66,ESE,121,0.0,0.0,82,0.00,,,0.00,,2013-06-01 07:42:00,
2013-06-01 02:52:00,78.0,72.0,29.66,ESE,121,0.0,0.0,82,0.00,,,0.00,,2013-06-01 07:52:00,
2013-06-01 03:02:00,78.0,72.0,29.65,South,189,0.0,0.0,82,0.00,,,0.00,,2013-06-01 08:02:00,
2013-06-01 03:11:00,78.0,72.0,29.65,SE,143,0.0,0.0,82,0.00,,,0.00,,2013-06-01 08:11:00,
2013-06-01 03:21:00,78.0,72.0,29.65,SE,143,0.0,0.0,82,0.00,,,0.00,,2013-06-01 08:21:00,
2013-06-01 03:32:00,78.0,72.0,29.65,SSE,165,0.0,0.0,82,0.00,,,0.00,,2013-06-01 08:32:00,
2013-06-01 03:42:00,78.0,72.0,29.66,South,180,0.0,0.0,82,0.00,,,0.00,,2013-06-01 08:42:00,
2013-06-01 03:52:00,78.0,72.0,29.66,South,180,0.0,0.0,82,0.00,,,0.00,,2013-06-01 08:52:00,
2013-06-01 04:01:00,78.0,72.0,29.66,SSE,153,0.0,0.0,82,0.00,,,0.00,,2013-06-01 09:01:00,
2013-06-01 04:12:00,78.0,72.0,29.66,SSE,153,0.0,0.0,82,0.00,,,0.00,,2013-06-01 09:12:00,
2013-06-01 04:21:00,78.0,72.0,29.67,SSW,206,0.0,0.0,82,0.00,,,0.00,,2013-06-01 09:21:00,
2013-06-01 04:33:00,78.0,72.0,29.67,SSE,168,0.0,0.0,82,0.00,,,0.00,,2013-06-01 09:33:00,
2013-06-01 04:42:00,78.0,72.0,29.67,SE,144,0.0,0.0,82,0.00,,,0.00,,2013-06-01 09:42:00,
2013-06-01 04:53:00,78.0,72.0,29.67,SE,144,0.0,0.0,82,0.00,,,0.00,,2013-06-01 09:53:00,
2013-06-01 05:02:00,78.0,72.0,29.68,South,187,0.0,0.0,82,0.00,,,0.00,,2013-06-01 10:02:00,
2013-06-01 05:12:00,78.0,72.0,29.68,South,187,0.0,0.0,82,0.00,,,0.00,,2013-06-01 10:12:00,
2013-06-01 05:22:00,77.0,71.0,29.68,SSE,168,0.0,0.0,82,0.00,,,0.00,,2013-06-01 10:22:00,
2013-06-01 05:32:00,77.0,71.0,29.67,SSE,156,0.0,0.0,82,0.00,,,0.00,,2013-06-01 10:32:00,
2013-06-01 05:42:00,77.0,71.0,29.67,SSE,160,0.0,0.0,82,0.00,,,0.00,,2013-06-01 10:42:00,
2013-06-01 05:52:00,77.0,71.0,29.67,SSE,160,0.0,0.0,82,0.00,,,0.00,,2013-06-01 10:52:00,
2013-06-01 06:02:00,77.0,71.0,29.67,South,170,0.0,0.0,82,0.00,,,0.00,,2013-06-01 11:02:00,
2013-06-01 06:11:00,77.0,71.0,29.68,SSE,158,0.0,0.0,82,0.00,,,0.00,,2013-06-01 11:11:00,
2013-06-01 06:21:00,77.0,71.0,29.68,SSE,158,0.0,0.0,82,0.00,,,0.00,,2013-06-01 11:21:00,
2013-06-01 06:32:00,77.0,71.0,29.68,SSE,148,0.0,0.0,82,0.00,,,0.00,,2013-06-01 11:32:00,
2013-06-01 06:42:00,77.0,71.0,29.68,SSE,150,0.0,0.0,82,0.00,,,0.00,,2013-06-01 11:42:00,
2013-06-01 06:52:00,77.0,71.0,29.68,SSE,150,0.0,0.0,82,0.00,,,0.00,,2013-06-01 11:52:00,
2013-06-01 07:01:00,77.0,71.0,29.69,SSE,164,0.0,0.0,82,0.00,,,0.00,,2013-06-01 12:01:00,
2013-06-01 07:12:00,77.0,71.0,29.75,WSW,244,0.0,0.0,82,0.00,,,0.00,,2013-06-01 12:12:00,
2013-06-01 07:21:00,77.0,71.0,29.75,WSW,244,0.0,0.0,82,0.00,,,0.00,,2013-06-01 12:21:00,
2013-06-01 07:32:00,77.0,71.0,29.72,South,185,0.0,0.0,82,0.00,,,0.00,,2013-06-01 12:32:00,
2013-06-01 07:41:00,77.0,71.0,29.75,SSE,154,0.0,0.0,81,0.00,,,0.00,,2013-06-01 12:41:00,
2013-06-01 07:52:00,77.0,71.0,29.75,SSE,154,0.0,0.0,81,0.00,,,0.00,,2013-06-01 12:52:00,
2013-06-01 08:01:00,77.0,71.0,29.73,SSE,161,0.0,0.0,81,0.00,,,0.00,,2013-06-01 13:01:00,
2013-06-01 08:11:00,78.0,72.0,29.74,SSE,159,0.0,0.0,81,0.00,,,0.00,,2013-06-01 13:11:00,
2013-06-01 08:22:00,78.0,72.0,29.74,SSE,159,0.0,0.0,81,0.00,,,0.00,,2013-06-01 13:22:00,
2013-06-01 08:32:00,78.0,72.0,29.74,SE,144,0.0,0.0,81,0.00,,,0.00,,2013-06-01 13:32:00,
2013-06-01 08:42:00,78.0,72.0,29.75,SE,146,0.0,0.0,81,0.00,,,0.00,,2013-06-01 13:42:00,
2013-06-01 08:52:00,78.0,72.0,29.75,SE,146,0.0,0.0,81,0.00,,,0.00,,2013-06-01 13:52:00,
2013-06-01 09:02:00,78.0,71.0,29.76,South,181,0.0,0.0,80,0.00,,,0.00,,2013-06-01 14:02:00,
2013-06-01 09:11:00,79.0,72.0,29.76,SSE,159,0.0,0.0,80,0.00,,,0.00,,2013-06-01 14:11:00,
2013-06-01 09:21:00,79.0,72.0,29.76,SSE,159,0.0,0.0,80,0.00,,,0.00,,2013-06-01 14:21:00,
2013-06-01 09:32:00,80.0,73.0,29.78,South,187,0.0,0.0,79,0.00,,,0.00,,2013-06-01 14:32:00,
2013-06-01 09:42:00,79.0,72.0,29.78,SSW,192,0.0,0.0,79,0.00,,,0.00,,2013-06-01 14:42:00,
2013-06-01 09:52:00,79.0,72.0,29.78,SSW,192,0.0,0.0,79,0.00,,,0.00,,2013-06-01 14:52:00,
2013-06-01 10:01:00,79.0,72.0,29.79,SSW,194,0.0,0.0,79,0.00,,,0.00,,2013-06-01 15:01:00,
2013-06-01 10:11:00,79.0,72.0,29.79,SSW,194,0.0,0.0,79,0.00,,,0.00,,2013-06-01 15:11:00,
2013-06-01 10:21:00,80.0,73.0,29.79,South,171,0.0,0.0,79,0.00,,,0.00,,2013-06-01 15:21:00,
2013-06-01 10:33:00,80.0,73.0,29.79,South,178,0.0,0.0,79,0.00,,,0.00,,2013-06-01 15:33:00,
2013-06-01 10:43:00,80.0,73.0,29.79,South,178,0.0,0.0,79,0.00,,,0.00,,2013-06-01 15:43:00,
2013-06-01 10:53:00,80.0,72.0,29.79,SSE,166,0.0,0.0,78,0.00,,,0.00,,2013-06-01 15:53:00,
2013-06-01 11:03:00,80.0,72.0,29.79,South,187,0.0,0.0,77,0.00,,,0.00,,2013-06-01 16:03:00,
2013-06-01 11:12:00,81.0,73.0,29.79,SSE,158,0.0,0.0,78,0.00,,,0.00,,2013-06-01 16:12:00,
2013-06-01 11:23:00,81.0,73.0,29.79,SSE,158,0.0,0.0,78,0.00,,,0.00,,2013-06-01 16:23:00,
2013-06-01 11:33:00,83.0,73.0,29.79,South,174,0.0,0.0,73,0.00,,,0.00,,2013-06-01 16:33:00,
2013-06-01 11:42:00,83.0,74.0,29.78,SE,144,0.0,0.0,74,0.00,,,0.00,,2013-06-01 16:42:00,
2013-06-01 11:52:00,83.0,74.0,29.78,SE,144,0.0,0.0,74,0.00,,,0.00,,2013-06-01 16:52:00,
2013-06-01 12:02:00,83.0,74.0,29.79,SSE,164,0.0,0.0,74,0.00,,,0.00,,2013-06-01 17:02:00,
2013-06-01 12:11:00,83.0,74.0,29.79,SSE,164,0.0,0.0,74,0.00,,,0.00,,2013-06-01 17:11:00,
2013-06-01 12:22:00,83.0,73.0,29.79,SSE,164,0.0,0.0,73,0.00,,,0.00,,2013-06-01 17:22:00,
2013-06-01 12:32:00,83.0,73.0,29.79,SSE,165,0.0,0.0,72,0.00,,,0.00,,2013-06-01 17:32:00,
2013-06-01 12:42:00,84.0,74.0,29.78,SSE,156,0.0,0.0,72,0.00,,,0.00,,2013-06-01 17:42:00,
2013-06-01 12:52:00,84.0,74.0,29.78,SSE,156,0.0,0.0,72,0.00,,,0.00,,2013-06-01 17:52:00,
2013-06-01 13:01:00,85.0,74.0,29.78,SSE,160,0.0,0.0,70,0.00,,,0.00,,2013-06-01 18:01:00,
2013-06-01 13:12:00,85.0,74.0,29.78,SSE,160,0.0,0.0,70,0.00,,,0.00,,2013-06-01 18:12:00,
2013-06-01 13:21:00,86.0,75.0,29.78,SSW,192,0.0,0.0,70,0.00,,,0.00,,2013-06-01 18:21:00,
2013-06-01 13:32:00,86.0,74.0,29.78,SSW,192,0.0,0.0,68,0.00,,,0.00,,2013-06-01 18:32:00,
2013-06-01 13:42:00,87.0,74.0,29.78,SSE,167,0.0,0.0,66,0.00,,,0.00,,2013-06-01 18:42:00,
2013-06-01 13:52:00,87.0,74.0,29.78,SSE,167,0.0,0.0,66,0.00,,,0.00,,2013-06-01 18:52:00,
2013-06-01 14:01:00,87.0,74.0,29.78,South,180,0.0,0.0,66,0.00,,,0.00,,2013-06-01 19:01:00,
2013-06-01 14:11:00,88.0,75.0,29.78,SSE,167,0.0,0.0,66,0.00,,,0.00,,2013-06-01 19:11:00,
2013-06-01 14:21:00,88.0,75.0,29.78,SSE,167,0.0,0.0,66,0.00,,,0.00,,2013-06-01 19:21:00,
2013-06-01 14:32:00,88.0,75.0,29.78,SSE,163,0.0,0.0,65,0.00,,,0.00,,2013-06-01 19:32:00,
2013-06-01 14:41:00,87.0,75.0,29.78,SE,139,0.0,0.0,67,0.00,,,0.00,,2013-06-01 19:41:00,
2013-06-01 14:52:00,87.0,75.0,29.78,SE,139,0.0,0.0,67,0.00,,,0.00,,2013-06-01 19:52:00,
2013-06-01 15:01:00,82.0,72.0,29.79,North,10,0.0,0.0,72,0.00,,,0.00,,2013-06-01 20:01:00,
2013-06-01 15:12:00,82.0,72.0,29.79,North,10,0.0,0.0,72,0.00,,,0.00,,2013-06-01 20:12:00,
2013-06-01 15:21:00,79.0,72.0,29.80,NW,326,4.0,8.0,80,0.00,,,0.00,,2013-06-01 20:21:00,
2013-06-01 15:32:00,78.0,73.0,29.80,NNW,329,0.0,0.0,86,0.01,,,0.01,,2013-06-01 20:32:00,
2013-06-01 15:41:00,78.0,74.0,29.80,NNW,333,0.0,0.0,87,0.03,,,0.03,,2013-06-01 20:41:00,
2013-06-01 15:52:00,78.0,74.0,29.80,NNW,333,0.0,0.0,87,0.03,,,0.03,,2013-06-01 20:52:00,
2013-06-01 16:01:00,79.0,74.0,29.80,NNW,327,0.0,0.0,84,0.03,,,0.03,,2013-06-01 21:01:00,
2013-06-01 16:11:00,79.0,73.0,29.80,NNW,344,0.0,0.0,81,0.03,,,0.03,,2013-06-01 21:11:00,
2013-06-01 16:21:00,79.0,73.0,29.80,NNW,344,0.0,0.0,81,0.03,,,0.03,,2013-06-01 21:21:00,
2013-06-01 16:33:00,81.0,73.0,29.80,NNW,327,0.0,0.0,78,0.02,,,0.03,,2013-06-01 21:33:00,
2013-06-01 16:42:00,81.0,73.0,29.80,NNW,327,0.0,0.0,78,0.02,,,0.03,,2013-06-01 21:42:00,
2013-06-01 16:53:00,81.0,73.0,29.80,North,355,0.0,0.0,77,0.00,,,0.03,,2013-06-01 21:53:00,
2013-06-01 17:03:00,83.0,74.0,29.80,NNE,13,0.0,0.0,74,0.00,,,0.03,,2013-06-01 22:03:00,
2013-06-01 17:12:00,82.0,73.0,29.80,NNW,345,0.0,0.0,74,0.00,,,0.03,,2013-06-01 22:12:00,
2013-06-01 17:23:00,82.0,73.0,29.80,NNW,345,0.0,0.0,74,0.00,,,0.03,,2013-06-01 22:23:00,
2013-06-01 17:33:00,82.0,73.0,29.80,NNW,342,0.0,0.0,75,0.00,,,0.03,,2013-06-01 22:33:00,
2013-06-01 17:42:00,82.0,74.0,29.80,NNW,329,0.0,0.0,76,0.00,,,0.03,,2013-06-01 22:42:00,
2013-06-01 17:53:00,82.0,74.0,29.80,NNW,329,0.0,0.0,76,0.00,,,0.03,,2013-06-01 22:53:00,
2013-06-01 18:02:00,82.0,73.0,29.80,NNW,345,0.0,0.0,74,0.00,,,0.03,,2013-06-01 23:02:00,
2013-06-01 18:11:00,82.0,73.0,29.80,NNW,346,0.0,0.0,74,0.00,,,0.03,,2013-06-01 23:11:00,
2013-06-01 18:21:00,82.0,73.0,29.80,NNW,346,0.0,0.0,74,0.00,,,0.03,,2013-06-01 23:21:00,
2013-06-01 18:32:00,81.0,72.0,29.80,NNW,348,0.0,0.0,75,0.00,,,0.03,,2013-06-01 23:32:00,
2013-06-01 18:42:00,80.0,72.0,29.80,NW,325,0.0,0.0,76,0.00,,,0.03,,2013-06-01 23:42:00,
2013-06-01 18:52:00,80.0,72.0,29.80,NW,325,0.0,0.0,76,0.00,,,0.03,,2013-06-01 23:52:00,
2013-06-01 19:02:00,79.0,71.0,29.81,North,351,0.0,0.0,76,0.00,,,0.03,,2013-06-02 00:02:00,
2013-06-01 19:11:00,79.0,71.0,29.81,North,351,0.0,0.0,76,0.00,,,0.03,,2013-06-02 00:11:00,
2013-06-01 19:21:00,79.0,71.0,29.81,NNW,345,0.0,0.0,77,0.00,,,0.03,,2013-06-02 00:21:00,
2013-06-01 19:32:00,79.0,72.0,29.81,North,355,0.0,0.0,78,0.00,,,0.03,,2013-06-02 00:32:00,
2013-06-01 19:41:00,79.0,72.0,29.81,North,355,0.0,0.0,78,0.00,,,0.03,,2013-06-02 00:41:00,
2013-06-01 19:52:00,79.0,72.0,29.82,North,0,0.0,0.0,79,0.00,,,0.03,,2013-06-02 00:52:00,
2013-06-01 20:01:00,78.0,71.0,29.82,NNW,345,0.0,0.0,78,0.00,,,0.03,,2013-06-02 01:01:00,
2013-06-01 20:11:00,78.0,71.0,29.82,NNW,345,0.0,0.0,78,0.00,,,0.03,,2013-06-02 01:11:00,
2013-06-01 20:21:00,78.0,70.0,29.82,North,11,0.0,0.0,77,0.00,,,0.03,,2013-06-02 01:21:00,
2013-06-01 20:32:00,78.0,70.0,29.83,NNE,18,0.0,0.0,76,0.00,,,0.03,,2013-06-02 01:32:00,
2013-06-01 20:41:00,78.0,70.0,29.84,North,5,0.0,0.0,76,0.00,,,0.03,,2013-06-02 01:41:00,
2013-06-01 20:52:00,78.0,70.0,29.84,North,5,0.0,0.0,76,0.00,,,0.03,,2013-06-02 01:52:00,
2013-06-01 21:01:00,78.0,69.0,29.84,NNE,15,0.0,0.0,74,0.00,,,0.03,,2013-06-02 02:01:00,
2013-06-01 21:12:00,78.0,69.0,29.85,NNE,29,0.0,0.0,74,0.00,,,0.03,,2013-06-02 02:12:00,
2013-06-01 21:21:00,78.0,69.0,29.85,NNE,29,0.0,0.0,74,0.00,,,0.03,,2013-06-02 02:21:00,
2013-06-01 21:32:00,78.0,70.0,29.85,North,9,0.0,0.0,76,0.00,,,0.03,,2013-06-02 02:32:00,
2013-06-01 21:41:00,78.0,70.0,29.86,NNE,16,0.0,0.0,76,0.00,,,0.03,,2013-06-02 02:41:00,
2013-06-01 21:52:00,78.0,70.0,29.86,NNE,16,0.0,0.0,76,0.00,,,0.03,,2013-06-02 02:52:00,
2013-06-01 22:02:00,78.0,70.0,29.86,North,5,0.0,0.0,76,0.00,,,0.03,,2013-06-02 03:02:00,
2013-06-01 22:11:00,78.0,70.0,29.87,North,0,0.0,0.0,76,0.00,,,0.03,,2013-06-02 03:11:00,
2013-06-01 22:21:00,78.0,70.0,29.87,North,0,0.0,0.0,76,0.00,,,0.03,,2013-06-02 03:21:00,
2013-06-01 22:33:00,77.0,70.0,29.88,NNW,346,0.0,0.0,78,0.00,,,0.03,,2013-06-02 03:33:00,
2013-06-01 22:43:00,76.0,70.0,29.88,NNW,340,0.0,0.0,82,0.00,,,0.03,,2013-06-02 03:43:00,
2013-06-01 22:53:00,76.0,70.0,29.88,NNW,340,0.0,0.0,82,0.00,,,0.03,,2013-06-02 03:53:00,
2013-06-01 23:02:00,76.0,71.0,29.89,NNW,340,0.0,0.0,85,0.00,,,0.03,,2013-06-02 04:02:00,
2013-06-01 23:13:00,75.0,71.0,29.88,NNW,340,0.0,0.0,86,0.00,,,0.03,,2013-06-02 04:13:00,
2013-06-01 23:23:00,75.0,71.0,29.88,NNW,340,0.0,0.0,86,0.00,,,0.03,,2013-06-02 04:23:00,
2013-06-01 23:33:00,75.0,70.0,29.89,NNW,340,0.0,0.0,85,0.00,,,0.03,,2013-06-02 04:33:00,
2013-06-01 23:42:00,75.0,70.0,29.89,NNW,340,0.0,0.0,85,0.00,,,0.03,,2013-06-02 04:42:00,
2013-06-01 23:53:00,75.0,70.0,29.89,NNW,341,0.0,0.0,84,0.00,,,0.03,,2013-06-02 04:53:00,